Year,Month,Day,Hour,Minute,Value (Times are PST for temperature in C)
2016,06,24,00,00,13.70
2016,06,24,00,01,13.70
2016,06,24,00,02,13.80
2016,06,24,00,03,13.80
2016,06,24,00,04,13.80
2016,06,24,00,05,13.80
2016,06,24,00,06,13.80
2016,06,24,00,07,13.80
2016,06,24,00,08,13.80
2016,06,24,00,09,13.80
2016,06,24,00,10,13.70
2016,06,24,00,11,13.70
2016,06,24,00,12,13.70
2016,06,24,00,13,13.70
2016,06,24,00,14,13.70
2016,06,24,00,15,13.70
2016,06,24,00,16,13.70
2016,06,24,00,17,13.70
2016,06,24,00,18,13.70
2016,06,24,00,19,13.70
2016,06,24,00,20,13.60
2016,06,24,00,21,13.60
2016,06,24,00,22,13.60
2016,06,24,00,23,13.60
2016,06,24,00,24,13.60
2016,06,24,00,25,13.60
2016,06,24,00,26,13.60
2016,06,24,00,27,13.60
2016,06,24,00,28,13.60
2016,06,24,00,29,13.60
2016,06,24,00,30,13.60
2016,06,24,00,31,13.50
2016,06,24,00,32,13.50
2016,06,24,00,33,13.50
2016,06,24,00,34,13.50
2016,06,24,00,35,13.50
2016,06,24,00,36,13.50
2016,06,24,00,37,13.40
2016,06,24,00,38,13.40
2016,06,24,00,39,13.40
2016,06,24,00,40,13.40
2016,06,24,00,41,13.40
2016,06,24,00,42,13.40
2016,06,24,00,43,13.40
2016,06,24,00,44,13.40
2016,06,24,00,45,13.40
2016,06,24,00,46,13.40
2016,06,24,00,47,13.40
2016,06,24,00,48,13.40
2016,06,24,00,49,13.40
2016,06,24,00,50,13.40
2016,06,24,00,51,13.40
2016,06,24,00,52,13.40
2016,06,24,00,53,13.40
2016,06,24,00,54,13.40
2016,06,24,00,55,13.40
2016,06,24,00,56,13.40
2016,06,24,00,57,13.40
2016,06,24,00,58,13.40
2016,06,24,00,59,13.40
2016,06,24,01,00,13.40
2016,06,24,01,01,13.40
2016,06,24,01,02,13.40
2016,06,24,01,03,13.50
2016,06,24,01,04,13.50
2016,06,24,01,05,13.50
2016,06,24,01,06,13.50
2016,06,24,01,07,13.50
2016,06,24,01,08,13.50
2016,06,24,01,09,13.50
2016,06,24,01,10,13.50
2016,06,24,01,11,13.50
2016,06,24,01,12,13.50
2016,06,24,01,13,13.50
2016,06,24,01,14,13.50
2016,06,24,01,15,13.50
2016,06,24,01,16,13.50
2016,06,24,01,17,13.50
2016,06,24,01,18,13.40
2016,06,24,01,19,13.40
2016,06,24,01,20,13.40
2016,06,24,01,21,13.40
2016,06,24,01,22,13.40
2016,06,24,01,23,13.40
2016,06,24,01,24,13.40
2016,06,24,01,25,13.40
2016,06,24,01,26,13.40
2016,06,24,01,27,13.40
2016,06,24,01,28,13.50
2016,06,24,01,29,13.50
2016,06,24,01,30,13.50
2016,06,24,01,31,13.50
2016,06,24,01,32,13.50
2016,06,24,01,33,13.50
2016,06,24,01,34,13.50
2016,06,24,01,35,13.50
2016,06,24,01,36,13.60
2016,06,24,01,37,13.60
2016,06,24,01,38,13.60
2016,06,24,01,39,13.60
2016,06,24,01,40,13.60
2016,06,24,01,41,13.60
2016,06,24,01,42,13.50
2016,06,24,01,43,13.50
2016,06,24,01,44,13.60
2016,06,24,01,45,13.60
2016,06,24,01,46,13.60
2016,06,24,01,47,13.60
2016,06,24,01,48,13.60
2016,06,24,01,49,13.60
2016,06,24,01,50,13.60
2016,06,24,01,51,13.60
2016,06,24,01,52,13.60
2016,06,24,01,53,13.60
2016,06,24,01,54,13.60
2016,06,24,01,55,13.60
2016,06,24,01,56,13.60
2016,06,24,01,57,13.60
2016,06,24,01,58,13.60
2016,06,24,01,59,13.60
2016,06,24,02,00,13.60
2016,06,24,02,01,13.60
2016,06,24,02,02,13.60
2016,06,24,02,03,13.70
2016,06,24,02,04,13.70
2016,06,24,02,05,13.70
2016,06,24,02,06,13.70
2016,06,24,02,07,13.70
2016,06,24,02,08,13.70
2016,06,24,02,09,13.70
2016,06,24,02,10,13.70
2016,06,24,02,11,13.80
2016,06,24,02,12,13.80
2016,06,24,02,13,13.80
2016,06,24,02,14,13.80
2016,06,24,02,15,13.80
2016,06,24,02,16,13.80
2016,06,24,02,17,13.80
2016,06,24,02,18,13.80
2016,06,24,02,19,13.80
2016,06,24,02,20,13.90
2016,06,24,02,21,13.90
2016,06,24,02,22,13.90
2016,06,24,02,23,13.90
2016,06,24,02,24,13.90
2016,06,24,02,25,13.90
2016,06,24,02,26,13.90
2016,06,24,02,27,14.00
2016,06,24,02,28,14.00
2016,06,24,02,29,14.00
2016,06,24,02,30,14.00
2016,06,24,02,31,14.00
2016,06,24,02,32,14.00
2016,06,24,02,33,14.00
2016,06,24,02,34,14.00
2016,06,24,02,35,14.00
2016,06,24,02,36,14.00
2016,06,24,02,37,14.00
2016,06,24,02,38,14.00
2016,06,24,02,39,14.00
2016,06,24,02,40,14.00
2016,06,24,02,41,14.00
2016,06,24,02,42,14.10
2016,06,24,02,43,14.10
2016,06,24,02,44,14.10
2016,06,24,02,45,14.10
2016,06,24,02,46,14.10
2016,06,24,02,47,14.10
2016,06,24,02,48,14.10
2016,06,24,02,49,14.10
2016,06,24,02,50,14.10
2016,06,24,02,51,14.10
2016,06,24,02,52,14.10
2016,06,24,02,53,14.10
2016,06,24,02,54,14.10
2016,06,24,02,55,14.10
2016,06,24,02,56,14.10
2016,06,24,02,57,14.10
2016,06,24,02,58,14.10
2016,06,24,02,59,14.10
2016,06,24,03,00,14.10
2016,06,24,03,01,14.10
2016,06,24,03,02,14.10
2016,06,24,03,03,14.10
2016,06,24,03,04,14.10
2016,06,24,03,05,14.10
2016,06,24,03,06,14.10
2016,06,24,03,07,14.10
2016,06,24,03,08,14.10
2016,06,24,03,09,14.10
2016,06,24,03,10,14.10
2016,06,24,03,11,14.10
2016,06,24,03,12,14.10
2016,06,24,03,13,14.10
2016,06,24,03,14,14.10
2016,06,24,03,15,14.10
2016,06,24,03,16,14.10
2016,06,24,03,17,14.10
2016,06,24,03,18,14.10
2016,06,24,03,19,14.10
2016,06,24,03,20,14.10
2016,06,24,03,21,14.10
2016,06,24,03,22,14.10
2016,06,24,03,23,14.10
2016,06,24,03,24,14.10
2016,06,24,03,25,14.10
2016,06,24,03,26,14.00
2016,06,24,03,27,14.00
2016,06,24,03,28,14.00
2016,06,24,03,29,14.00
2016,06,24,03,30,14.00
2016,06,24,03,31,14.00
2016,06,24,03,32,14.00
2016,06,24,03,33,14.00
2016,06,24,03,34,14.10
2016,06,24,03,35,14.10
2016,06,24,03,36,14.10
2016,06,24,03,37,14.10
2016,06,24,03,38,14.10
2016,06,24,03,39,14.10
2016,06,24,03,40,14.10
2016,06,24,03,41,14.10
2016,06,24,03,42,14.10
2016,06,24,03,43,14.10
2016,06,24,03,44,14.10
2016,06,24,03,45,14.10
2016,06,24,03,46,14.10
2016,06,24,03,47,14.10
2016,06,24,03,48,14.10
2016,06,24,03,49,14.10
2016,06,24,03,50,14.10
2016,06,24,03,51,14.10
2016,06,24,03,52,14.00
2016,06,24,03,53,14.00
2016,06,24,03,54,14.00
2016,06,24,03,55,14.00
2016,06,24,03,56,14.00
2016,06,24,03,57,14.00
2016,06,24,03,58,14.00
2016,06,24,03,59,14.00
2016,06,24,04,00,14.00
2016,06,24,04,01,13.90
2016,06,24,04,02,13.90
2016,06,24,04,03,13.90
2016,06,24,04,04,13.90
2016,06,24,04,05,13.90
2016,06,24,04,06,13.90
2016,06,24,04,07,13.90
2016,06,24,04,08,13.90
2016,06,24,04,09,13.80
2016,06,24,04,10,13.80
2016,06,24,04,11,13.70
2016,06,24,04,12,13.70
2016,06,24,04,13,13.60
2016,06,24,04,14,13.50
2016,06,24,04,15,13.40
2016,06,24,04,16,13.40
2016,06,24,04,17,13.30
2016,06,24,04,18,13.20
2016,06,24,04,19,13.20
2016,06,24,04,20,13.10
2016,06,24,04,21,13.10
2016,06,24,04,22,13.00
2016,06,24,04,23,12.90
2016,06,24,04,24,12.90
2016,06,24,04,25,12.90
2016,06,24,04,26,12.90
2016,06,24,04,27,12.80
2016,06,24,04,28,12.80
2016,06,24,04,29,12.80
2016,06,24,04,30,12.80
2016,06,24,04,31,12.80
2016,06,24,04,32,12.80
2016,06,24,04,33,12.80
2016,06,24,04,34,12.80
2016,06,24,04,35,12.80
2016,06,24,04,36,12.80
2016,06,24,04,37,12.80
2016,06,24,04,38,12.80
2016,06,24,04,39,12.90
2016,06,24,04,40,12.90
2016,06,24,04,41,12.90
2016,06,24,04,42,12.90
2016,06,24,04,43,12.90
2016,06,24,04,44,12.90
2016,06,24,04,45,12.90
2016,06,24,04,46,12.90
2016,06,24,04,47,12.90
2016,06,24,04,48,12.90
2016,06,24,04,49,12.90
2016,06,24,04,50,12.90
2016,06,24,04,51,12.90
2016,06,24,04,52,12.90
2016,06,24,04,53,12.90
2016,06,24,04,54,12.80
2016,06,24,04,55,12.80
2016,06,24,04,56,12.80
2016,06,24,04,57,12.80
2016,06,24,04,58,12.80
2016,06,24,04,59,12.90
2016,06,24,05,00,12.90
2016,06,24,05,01,12.90
2016,06,24,05,02,12.90
2016,06,24,05,03,12.90
2016,06,24,05,04,12.90
2016,06,24,05,05,12.90
2016,06,24,05,06,12.90
2016,06,24,05,07,12.90
2016,06,24,05,08,12.90
2016,06,24,05,09,12.90
2016,06,24,05,10,12.90
2016,06,24,05,11,12.90
2016,06,24,05,12,12.90
2016,06,24,05,13,12.90
2016,06,24,05,14,12.90
2016,06,24,05,15,12.90
2016,06,24,05,16,12.90
2016,06,24,05,17,12.90
2016,06,24,05,18,12.90
2016,06,24,05,19,12.90
2016,06,24,05,20,12.90
2016,06,24,05,21,12.90
2016,06,24,05,22,12.90
2016,06,24,05,23,12.90
2016,06,24,05,24,12.90
2016,06,24,05,25,12.90
2016,06,24,05,26,12.90
2016,06,24,05,27,12.90
2016,06,24,05,28,12.90
2016,06,24,05,29,12.90
2016,06,24,05,30,12.90
2016,06,24,05,31,12.90
2016,06,24,05,32,12.90
2016,06,24,05,33,12.90
2016,06,24,05,34,12.90
2016,06,24,05,35,12.90
2016,06,24,05,36,12.90
2016,06,24,05,37,12.90
2016,06,24,05,38,12.90
2016,06,24,05,39,12.90
2016,06,24,05,40,12.90
2016,06,24,05,41,12.90
2016,06,24,05,42,13.00
2016,06,24,05,43,13.00
2016,06,24,05,44,13.00
2016,06,24,05,45,13.00
2016,06,24,05,46,13.00
2016,06,24,05,47,13.00
2016,06,24,05,48,13.00
2016,06,24,05,49,13.00
2016,06,24,05,50,13.00
2016,06,24,05,51,13.10
2016,06,24,05,52,13.10
2016,06,24,05,53,13.10
2016,06,24,05,54,13.10
2016,06,24,05,55,13.10
2016,06,24,05,56,13.10
2016,06,24,05,57,13.10
2016,06,24,05,58,13.10
2016,06,24,05,59,13.10
2016,06,24,06,00,13.10
2016,06,24,06,01,13.10
2016,06,24,06,02,13.10
2016,06,24,06,03,13.10
2016,06,24,06,04,13.10
2016,06,24,06,05,13.10
2016,06,24,06,06,13.20
2016,06,24,06,07,13.20
2016,06,24,06,08,13.20
2016,06,24,06,09,13.20
2016,06,24,06,10,13.20
2016,06,24,06,11,13.20
2016,06,24,06,12,13.20
2016,06,24,06,13,13.20
2016,06,24,06,14,13.20
2016,06,24,06,15,13.20
2016,06,24,06,16,13.20
2016,06,24,06,17,13.20
2016,06,24,06,18,13.30
2016,06,24,06,19,13.30
2016,06,24,06,20,13.30
2016,06,24,06,21,13.30
2016,06,24,06,22,13.30
2016,06,24,06,23,13.30
2016,06,24,06,24,13.30
2016,06,24,06,25,13.30
2016,06,24,06,26,13.30
2016,06,24,06,27,13.30
2016,06,24,06,28,13.30
2016,06,24,06,29,13.30
2016,06,24,06,30,13.30
2016,06,24,06,31,13.30
2016,06,24,06,32,13.30
2016,06,24,06,33,13.30
2016,06,24,06,34,13.30
2016,06,24,06,35,13.30
2016,06,24,06,36,13.30
2016,06,24,06,37,13.30
2016,06,24,06,38,13.30
2016,06,24,06,39,13.30
2016,06,24,06,40,13.30
2016,06,24,06,41,13.30
2016,06,24,06,42,13.30
2016,06,24,06,43,13.40
2016,06,24,06,44,13.40
2016,06,24,06,45,13.40
2016,06,24,06,46,13.30
2016,06,24,06,47,13.30
2016,06,24,06,48,13.30
2016,06,24,06,49,13.30
2016,06,24,06,50,13.30
2016,06,24,06,51,13.30
2016,06,24,06,52,13.30
2016,06,24,06,53,13.30
2016,06,24,06,54,13.30
2016,06,24,06,55,13.30
2016,06,24,06,56,13.20
2016,06,24,06,57,13.10
2016,06,24,06,58,13.10
2016,06,24,06,59,13.00
2016,06,24,07,00,13.00
2016,06,24,07,01,12.90
2016,06,24,07,02,12.80
2016,06,24,07,03,12.80
2016,06,24,07,04,12.70
2016,06,24,07,05,12.70
2016,06,24,07,06,12.60
2016,06,24,07,07,12.60
2016,06,24,07,08,12.50
2016,06,24,07,09,12.50
2016,06,24,07,10,12.40
2016,06,24,07,11,12.30
2016,06,24,07,12,12.30
2016,06,24,07,13,12.30
2016,06,24,07,14,12.20
2016,06,24,07,15,12.20
2016,06,24,07,16,12.20
2016,06,24,07,17,12.20
2016,06,24,07,18,12.20
2016,06,24,07,19,12.20
2016,06,24,07,20,12.20
2016,06,24,07,21,12.20
2016,06,24,07,22,12.20
2016,06,24,07,23,12.20
2016,06,24,07,24,12.20
2016,06,24,07,25,12.20
2016,06,24,07,26,12.20
2016,06,24,07,27,12.20
2016,06,24,07,28,12.20
2016,06,24,07,29,12.20
2016,06,24,07,30,12.20
2016,06,24,07,31,12.20
2016,06,24,07,32,12.20
2016,06,24,07,33,12.20
2016,06,24,07,34,12.20
2016,06,24,07,35,12.10
2016,06,24,07,36,12.20
2016,06,24,07,37,12.20
2016,06,24,07,38,12.20
2016,06,24,07,39,12.20
2016,06,24,07,40,12.20
2016,06,24,07,41,12.20
2016,06,24,07,42,12.20
2016,06,24,07,43,12.10
2016,06,24,07,44,12.10
2016,06,24,07,45,12.10
2016,06,24,07,46,12.10
2016,06,24,07,47,12.10
2016,06,24,07,48,12.10
2016,06,24,07,49,12.20
2016,06,24,07,50,12.20
2016,06,24,07,51,12.20
2016,06,24,07,52,12.20
2016,06,24,07,53,12.20
2016,06,24,07,54,12.20
2016,06,24,07,55,12.20
2016,06,24,07,56,12.20
2016,06,24,07,57,12.20
2016,06,24,07,58,12.20
2016,06,24,07,59,12.20
2016,06,24,08,00,12.20
2016,06,24,08,01,12.20
2016,06,24,08,02,12.20
2016,06,24,08,03,12.20
2016,06,24,08,04,12.20
2016,06,24,08,05,12.20
2016,06,24,08,06,12.20
2016,06,24,08,07,12.30
2016,06,24,08,08,12.30
2016,06,24,08,09,12.30
2016,06,24,08,10,12.20
2016,06,24,08,11,12.20
2016,06,24,08,12,12.20
2016,06,24,08,13,12.30
2016,06,24,08,14,12.20
2016,06,24,08,15,12.20
2016,06,24,08,16,12.20
2016,06,24,08,17,12.30
2016,06,24,08,18,12.30
2016,06,24,08,19,12.30
2016,06,24,08,20,12.30
2016,06,24,08,21,12.30
2016,06,24,08,22,12.30
2016,06,24,08,23,12.30
2016,06,24,08,24,12.30
2016,06,24,08,25,12.30
2016,06,24,08,26,12.30
2016,06,24,08,27,12.30
2016,06,24,08,28,12.30
2016,06,24,08,29,12.30
2016,06,24,08,30,12.30
2016,06,24,08,31,12.30
2016,06,24,08,32,12.30
2016,06,24,08,33,12.30
2016,06,24,08,34,12.30
2016,06,24,08,35,12.30
2016,06,24,08,36,12.30
2016,06,24,08,37,12.40
2016,06,24,08,38,12.40
2016,06,24,08,39,12.40
2016,06,24,08,40,12.40
2016,06,24,08,41,12.40
2016,06,24,08,42,12.50
2016,06,24,08,43,12.50
2016,06,24,08,44,12.50
2016,06,24,08,45,12.60
2016,06,24,08,46,12.60
2016,06,24,08,47,12.50
2016,06,24,08,48,12.50
2016,06,24,08,49,12.60
2016,06,24,08,50,12.60
2016,06,24,08,51,12.60
2016,06,24,08,52,12.60
2016,06,24,08,53,12.60
2016,06,24,08,54,12.70
2016,06,24,08,55,12.70
2016,06,24,08,56,12.70
2016,06,24,08,57,12.70
2016,06,24,08,58,12.70
2016,06,24,08,59,12.70
2016,06,24,09,00,12.70
2016,06,24,09,01,12.80
2016,06,24,09,02,12.80
2016,06,24,09,03,12.80
2016,06,24,09,04,12.80
2016,06,24,09,05,12.80
2016,06,24,09,06,12.80
2016,06,24,09,07,12.80
2016,06,24,09,08,12.90
2016,06,24,09,09,12.90
2016,06,24,09,10,12.90
2016,06,24,09,11,12.90
2016,06,24,09,12,12.90
2016,06,24,09,13,12.90
2016,06,24,09,14,13.00
2016,06,24,09,15,13.00
2016,06,24,09,16,13.00
2016,06,24,09,17,13.00
2016,06,24,09,18,13.00
2016,06,24,09,19,13.00
2016,06,24,09,20,13.00
2016,06,24,09,21,13.00
2016,06,24,09,22,13.10
2016,06,24,09,23,13.10
2016,06,24,09,24,13.10
2016,06,24,09,25,13.10
2016,06,24,09,26,13.10
2016,06,24,09,27,13.10
2016,06,24,09,28,13.10
2016,06,24,09,29,13.10
2016,06,24,09,30,13.10
2016,06,24,09,31,13.20
2016,06,24,09,32,13.20
2016,06,24,09,33,13.20
2016,06,24,09,34,13.20
2016,06,24,09,35,13.20
2016,06,24,09,36,13.30
2016,06,24,09,37,13.30
2016,06,24,09,38,13.30
2016,06,24,09,39,13.30
2016,06,24,09,40,13.30
2016,06,24,09,41,13.40
2016,06,24,09,42,13.40
2016,06,24,09,43,13.40
2016,06,24,09,44,13.40
2016,06,24,09,45,13.40
2016,06,24,09,46,13.40
2016,06,24,09,47,13.40
2016,06,24,09,48,13.40
2016,06,24,09,49,13.40
2016,06,24,09,50,13.50
2016,06,24,09,51,13.50
2016,06,24,09,52,13.50
2016,06,24,09,53,13.60
2016,06,24,09,54,13.60
2016,06,24,09,55,13.60
2016,06,24,09,56,13.60
2016,06,24,09,57,13.60
2016,06,24,09,58,13.60
2016,06,24,09,59,13.60
2016,06,24,10,00,13.60
2016,06,24,10,01,13.60
2016,06,24,10,02,13.70
2016,06,24,10,03,13.70
2016,06,24,10,04,13.70
2016,06,24,10,05,13.70
2016,06,24,10,06,13.70
2016,06,24,10,07,13.70
2016,06,24,10,08,13.70
2016,06,24,10,09,13.70
2016,06,24,10,10,13.70
2016,06,24,10,11,13.70
2016,06,24,10,12,13.70
2016,06,24,10,13,13.70
2016,06,24,10,14,13.70
2016,06,24,10,15,13.70
2016,06,24,10,16,13.70
2016,06,24,10,17,13.70
2016,06,24,10,18,13.70
2016,06,24,10,19,13.70
2016,06,24,10,20,13.80
2016,06,24,10,21,13.80
2016,06,24,10,22,13.80
2016,06,24,10,23,13.80
2016,06,24,10,24,13.80
2016,06,24,10,25,13.80
2016,06,24,10,26,13.80
2016,06,24,10,27,13.90
2016,06,24,10,28,13.90
2016,06,24,10,29,13.90
2016,06,24,10,30,14.00
2016,06,24,10,31,14.00
2016,06,24,10,32,14.10
2016,06,24,10,33,14.10
2016,06,24,10,34,14.20
2016,06,24,10,35,14.20
2016,06,24,10,36,14.30
2016,06,24,10,37,14.40
2016,06,24,10,38,14.50
2016,06,24,10,39,14.60
2016,06,24,10,40,14.70
2016,06,24,10,41,14.80
2016,06,24,10,42,14.90
2016,06,24,10,43,15.00
2016,06,24,10,44,15.10
2016,06,24,10,45,15.20
2016,06,24,10,46,15.20
2016,06,24,10,47,15.20
2016,06,24,10,48,15.30
2016,06,24,10,49,15.30
2016,06,24,10,50,15.40
2016,06,24,10,51,15.40
2016,06,24,10,52,15.50
2016,06,24,10,53,15.50
2016,06,24,10,54,15.60
2016,06,24,10,55,15.60
2016,06,24,10,56,15.60
2016,06,24,10,57,15.70
2016,06,24,10,58,15.70
2016,06,24,10,59,15.70
2016,06,24,11,00,15.70
2016,06,24,11,01,15.80
2016,06,24,11,02,15.80
2016,06,24,11,03,15.80
2016,06,24,11,04,15.80
2016,06,24,11,05,15.90
2016,06,24,11,06,15.90
2016,06,24,11,07,15.90
2016,06,24,11,08,15.90
2016,06,24,11,09,15.90
2016,06,24,11,10,15.90
2016,06,24,11,11,15.90
2016,06,24,11,12,16.00
2016,06,24,11,13,16.00
2016,06,24,11,14,16.10
2016,06,24,11,15,16.10
2016,06,24,11,16,16.10
2016,06,24,11,17,16.10
2016,06,24,11,18,16.10
2016,06,24,11,19,16.10
2016,06,24,11,20,16.20
2016,06,24,11,21,16.20
2016,06,24,11,22,16.20
2016,06,24,11,23,16.30
2016,06,24,11,24,16.30
2016,06,24,11,25,16.30
2016,06,24,11,26,16.30
2016,06,24,11,27,16.40
2016,06,24,11,28,16.40
2016,06,24,11,29,16.40
2016,06,24,11,30,16.50
2016,06,24,11,31,16.50
2016,06,24,11,32,16.60
2016,06,24,11,33,16.60
2016,06,24,11,34,16.60
2016,06,24,11,35,16.70
2016,06,24,11,36,16.70
2016,06,24,11,37,16.80
2016,06,24,11,38,16.80
2016,06,24,11,39,16.80
2016,06,24,11,40,16.90
2016,06,24,11,41,16.90
2016,06,24,11,42,16.90
2016,06,24,11,43,16.90
2016,06,24,11,44,16.90
2016,06,24,11,45,16.90
2016,06,24,11,46,16.90
2016,06,24,11,47,16.90
2016,06,24,11,48,16.90
2016,06,24,11,49,16.90
2016,06,24,11,50,16.90
2016,06,24,11,51,16.90
2016,06,24,11,52,16.90
2016,06,24,11,53,16.90
2016,06,24,11,54,16.90
2016,06,24,11,55,16.90
2016,06,24,11,56,16.90
2016,06,24,11,57,16.90
2016,06,24,11,58,16.90
2016,06,24,11,59,16.90
2016,06,24,12,00,16.90
2016,06,24,12,01,17.00
2016,06,24,12,02,17.00
2016,06,24,12,03,17.00
2016,06,24,12,04,17.10
2016,06,24,12,05,17.10
2016,06,24,12,06,17.20
2016,06,24,12,07,17.20
2016,06,24,12,08,17.30
2016,06,24,12,09,17.30
2016,06,24,12,10,17.30
2016,06,24,12,11,17.30
2016,06,24,12,12,17.40
2016,06,24,12,13,17.40
2016,06,24,12,14,17.40
2016,06,24,12,15,17.40
2016,06,24,12,16,17.40
2016,06,24,12,17,17.40
2016,06,24,12,18,17.50
2016,06,24,12,19,17.50
2016,06,24,12,20,17.50
2016,06,24,12,21,17.60
2016,06,24,12,22,17.60
2016,06,24,12,23,17.70
2016,06,24,12,24,17.70
2016,06,24,12,25,17.80
2016,06,24,12,26,17.80
2016,06,24,12,27,17.90
2016,06,24,12,28,17.90
2016,06,24,12,29,17.80
2016,06,24,12,30,17.80
2016,06,24,12,31,17.80
2016,06,24,12,32,17.70
2016,06,24,12,33,17.70
2016,06,24,12,34,17.70
2016,06,24,12,35,17.70
2016,06,24,12,36,17.70
2016,06,24,12,37,17.70
2016,06,24,12,38,17.80
2016,06,24,12,39,17.80
2016,06,24,12,40,17.80
2016,06,24,12,41,17.80
2016,06,24,12,42,17.80
2016,06,24,12,43,17.80
2016,06,24,12,44,17.80
2016,06,24,12,45,17.80
2016,06,24,12,46,17.80
2016,06,24,12,47,17.80
2016,06,24,12,48,17.80
2016,06,24,12,49,17.80
2016,06,24,12,50,17.80
2016,06,24,12,51,17.80
2016,06,24,12,52,17.90
2016,06,24,12,53,17.90
2016,06,24,12,54,17.90
2016,06,24,12,55,17.90
2016,06,24,12,56,18.00
2016,06,24,12,57,18.00
2016,06,24,12,58,18.10
2016,06,24,12,59,18.10
2016,06,24,13,00,18.20
2016,06,24,13,01,18.20
2016,06,24,13,02,18.30
2016,06,24,13,03,18.30
2016,06,24,13,04,18.30
2016,06,24,13,05,18.30
2016,06,24,13,06,18.40
2016,06,24,13,07,18.40
2016,06,24,13,08,18.40
2016,06,24,13,09,18.40
2016,06,24,13,10,18.40
2016,06,24,13,11,18.50
2016,06,24,13,12,18.50
2016,06,24,13,13,18.60
2016,06,24,13,14,18.60
2016,06,24,13,15,18.70
2016,06,24,13,16,18.70
2016,06,24,13,17,18.70
2016,06,24,13,18,18.80
2016,06,24,13,19,18.80
2016,06,24,13,20,18.80
2016,06,24,13,21,18.90
2016,06,24,13,22,18.90
2016,06,24,13,23,18.90
2016,06,24,13,24,18.90
2016,06,24,13,25,18.90
2016,06,24,13,26,18.90
2016,06,24,13,27,18.90
2016,06,24,13,28,18.90
2016,06,24,13,29,18.90
2016,06,24,13,30,18.80
2016,06,24,13,31,18.80
2016,06,24,13,32,18.80
2016,06,24,13,33,18.80
2016,06,24,13,34,18.80
2016,06,24,13,35,18.80
2016,06,24,13,36,18.80
2016,06,24,13,37,18.80
2016,06,24,13,38,18.90
2016,06,24,13,39,18.90
2016,06,24,13,40,18.90
2016,06,24,13,41,18.90
2016,06,24,13,42,18.90
2016,06,24,13,43,18.90
2016,06,24,13,44,18.90
2016,06,24,13,45,18.90
2016,06,24,13,46,18.90
2016,06,24,13,47,18.90
2016,06,24,13,48,18.90
2016,06,24,13,49,19.00
2016,06,24,13,50,19.00
2016,06,24,13,51,19.00
2016,06,24,13,52,18.90
2016,06,24,13,53,18.90
2016,06,24,13,54,18.80
2016,06,24,13,55,18.70
2016,06,24,13,56,18.70
2016,06,24,13,57,18.60
2016,06,24,13,58,18.50
2016,06,24,13,59,18.50
2016,06,24,14,00,18.40
2016,06,24,14,01,18.40
2016,06,24,14,02,18.40
2016,06,24,14,03,18.40
2016,06,24,14,04,18.50
2016,06,24,14,05,18.50
2016,06,24,14,06,18.60
2016,06,24,14,07,18.60
2016,06,24,14,08,18.60
2016,06,24,14,09,18.60
2016,06,24,14,10,18.60
2016,06,24,14,11,18.50
2016,06,24,14,12,18.40
2016,06,24,14,13,18.40
2016,06,24,14,14,18.30
2016,06,24,14,15,18.30
2016,06,24,14,16,18.30
2016,06,24,14,17,18.30
2016,06,24,14,18,18.30
2016,06,24,14,19,18.30
2016,06,24,14,20,18.30
2016,06,24,14,21,18.30
2016,06,24,14,22,18.30
2016,06,24,14,23,18.40
2016,06,24,14,24,18.40
2016,06,24,14,25,18.50
2016,06,24,14,26,18.50
2016,06,24,14,27,18.50
2016,06,24,14,28,18.50
2016,06,24,14,29,18.40
2016,06,24,14,30,18.40
2016,06,24,14,31,18.40
2016,06,24,14,32,18.40
2016,06,24,14,33,18.40
2016,06,24,14,34,18.30
2016,06,24,14,35,18.30
2016,06,24,14,36,18.30
2016,06,24,14,37,18.30
2016,06,24,14,38,18.20
2016,06,24,14,39,18.20
2016,06,24,14,40,18.20
2016,06,24,14,41,18.20
2016,06,24,14,42,18.20
2016,06,24,14,43,18.30
2016,06,24,14,44,18.30
2016,06,24,14,45,18.30
2016,06,24,14,46,18.30
2016,06,24,14,47,18.30
2016,06,24,14,48,18.30
2016,06,24,14,49,18.30
2016,06,24,14,50,18.30
2016,06,24,14,51,18.30
2016,06,24,14,52,18.30
2016,06,24,14,53,18.30
2016,06,24,14,54,18.30
2016,06,24,14,55,18.30
2016,06,24,14,56,18.30
2016,06,24,14,57,18.30
2016,06,24,14,58,18.30
2016,06,24,14,59,18.20
2016,06,24,15,00,18.20
2016,06,24,15,01,18.20
2016,06,24,15,02,18.20
2016,06,24,15,03,18.20
2016,06,24,15,04,18.10
2016,06,24,15,05,18.10
2016,06,24,15,06,18.10
2016,06,24,15,07,18.10
2016,06,24,15,08,18.10
2016,06,24,15,09,18.10
2016,06,24,15,10,18.10
2016,06,24,15,11,18.10
2016,06,24,15,12,18.10
2016,06,24,15,13,17.90
2016,06,24,15,14,17.90
2016,06,24,15,15,17.90
2016,06,24,15,16,17.90
2016,06,24,15,17,17.90
2016,06,24,15,18,17.80
2016,06,24,15,19,17.80
2016,06,24,15,20,17.80
2016,06,24,15,21,17.80
2016,06,24,15,22,17.80
2016,06,24,15,23,17.80
2016,06,24,15,24,17.80
2016,06,24,15,25,17.70
2016,06,24,15,26,17.70
2016,06,24,15,27,17.70
2016,06,24,15,28,17.60
2016,06,24,15,29,17.60
2016,06,24,15,30,17.60
2016,06,24,15,31,17.60
2016,06,24,15,32,17.60
2016,06,24,15,33,17.60
2016,06,24,15,34,17.60
2016,06,24,15,35,17.60
2016,06,24,15,36,17.60
2016,06,24,15,37,17.60
2016,06,24,15,38,17.60
2016,06,24,15,39,17.60
2016,06,24,15,40,17.50
2016,06,24,15,41,17.60
2016,06,24,15,42,17.60
2016,06,24,15,43,17.60
2016,06,24,15,44,17.60
2016,06,24,15,45,17.60
2016,06,24,15,46,17.60
2016,06,24,15,47,17.60
2016,06,24,15,48,17.60
2016,06,24,15,49,17.60
2016,06,24,15,50,17.60
2016,06,24,15,51,17.60
2016,06,24,15,52,17.60
2016,06,24,15,53,17.60
2016,06,24,15,54,17.60
2016,06,24,15,55,17.60
2016,06,24,15,56,17.60
2016,06,24,15,57,17.60
2016,06,24,15,58,17.50
2016,06,24,15,59,17.60
2016,06,24,16,00,17.50
2016,06,24,16,01,17.50
2016,06,24,16,02,17.50
2016,06,24,16,03,17.50
2016,06,24,16,04,17.60
2016,06,24,16,05,17.50
2016,06,24,16,06,17.60
2016,06,24,16,07,17.50
2016,06,24,16,08,17.50
2016,06,24,16,09,17.50
2016,06,24,16,10,17.40
2016,06,24,16,11,17.40
2016,06,24,16,12,17.40
2016,06,24,16,13,17.40
2016,06,24,16,14,17.40
2016,06,24,16,15,17.40
2016,06,24,16,16,17.40
2016,06,24,16,17,17.40
2016,06,24,16,18,17.30
2016,06,24,16,19,17.30
2016,06,24,16,20,17.30
2016,06,24,16,21,17.30
2016,06,24,16,22,17.30
2016,06,24,16,23,17.30
2016,06,24,16,24,17.20
2016,06,24,16,25,17.20
2016,06,24,16,26,17.20
2016,06,24,16,27,17.20
2016,06,24,16,28,17.20
2016,06,24,16,29,17.20
2016,06,24,16,30,17.20
2016,06,24,16,31,17.20
2016,06,24,16,32,17.20
2016,06,24,16,33,17.20
2016,06,24,16,34,17.20
2016,06,24,16,35,17.20
2016,06,24,16,36,17.20
2016,06,24,16,37,17.20
2016,06,24,16,38,17.20
2016,06,24,16,39,17.20
2016,06,24,16,40,17.20
2016,06,24,16,41,17.10
2016,06,24,16,42,17.10
2016,06,24,16,43,17.00
2016,06,24,16,44,16.90
2016,06,24,16,45,16.90
2016,06,24,16,46,16.90
2016,06,24,16,47,16.90
2016,06,24,16,48,16.90
2016,06,24,16,49,16.90
2016,06,24,16,50,16.90
2016,06,24,16,51,16.90
2016,06,24,16,52,16.80
2016,06,24,16,53,16.80
2016,06,24,16,54,16.80
2016,06,24,16,55,16.80
2016,06,24,16,56,16.70
2016,06,24,16,57,16.70
2016,06,24,16,58,16.70
2016,06,24,16,59,16.70
2016,06,24,17,00,16.70
2016,06,24,17,01,16.70
2016,06,24,17,02,16.70
2016,06,24,17,03,16.70
2016,06,24,17,04,16.70
2016,06,24,17,05,16.70
2016,06,24,17,06,16.70
2016,06,24,17,07,16.70
2016,06,24,17,08,16.70
2016,06,24,17,09,16.70
2016,06,24,17,10,16.70
2016,06,24,17,11,16.70
2016,06,24,17,12,16.80
2016,06,24,17,13,16.80
2016,06,24,17,14,16.80
2016,06,24,17,15,16.80
2016,06,24,17,16,16.80
2016,06,24,17,17,16.90
2016,06,24,17,18,16.90
2016,06,24,17,19,16.90